Location: San Gennaro Vesuviano
(40.8833°N, 14.5333°E)
Time: 10:11:40
(UTC+00:00)

Cosmos 2227 Rocket - Pass Details

Date: 22 April 2021
Orbit: 840 x 844 km, 71.0° (Epoch: 11 May)

Event Time Altitude Azimuth Distance (km) Brightness Sun altitude
Rises 18:49:23 0° 180° (S) 3,385 5.1 -11.4°
Reaches altitude 10° 18:51:57 10° 173° (S) 2,454 4.3 -11.8°
Maximum altitude 18:57:08 39° 105° (ESE) 1,241 2.6 -12.6°
Drops below altitude 10° 19:02:21 10° 39° (NE) 2,468 4.5 -13.5°
Sets 19:04:56 0° 32° (NNE) 3,406 5.4 -13.9°
